TimeMDT,TemperatureF,Dew PointF,Humidity,Sea Level PressureIn,VisibilityMPH,Wind Direction,Wind SpeedMPH,Gust SpeedMPH,PrecipitationIn,Events,Conditions,WindDirDegrees,DateUTC
12:52 AM,41.0,37.0,86,29.96,-9999.0,NNW,4.6,-,N/A,,Unknown,330,2013-03-20 06:52:00
1:52 AM,39.9,37.0,89,29.91,-9999.0,North,3.5,-,N/A,,Unknown,360,2013-03-20 07:52:00
2:52 AM,39.9,36.0,86,29.90,-9999.0,Variable,3.5,-,N/A,,Unknown,0,2013-03-20 08:52:00
3:52 AM,39.9,37.0,89,29.86,-9999.0,Calm,Calm,-,N/A,,Unknown,0,2013-03-20 09:52:00
4:52 AM,39.9,36.0,86,29.83,-9999.0,NW,3.5,-,N/A,,Unknown,310,2013-03-20 10:52:00
5:52 AM,39.0,37.0,93,29.86,-9999.0,North,3.5,-,N/A,,Unknown,360,2013-03-20 11:52:00
6:52 AM,39.0,37.9,96,29.86,-9999.0,Calm,Calm,-,0.04,,Unknown,0,2013-03-20 12:52:00
7:52 AM,37.9,37.0,97,29.84,-9999.0,North,3.5,-,0.02,,Unknown,360,2013-03-20 13:52:00
8:52 AM,39.0,37.9,96,29.83,-9999.0,North,3.5,-,N/A,,Unknown,350,2013-03-20 14:52:00
9:52 AM,39.9,37.9,93,29.83,-9999.0,Calm,Calm,-,N/A,,Unknown,0,2013-03-20 15:52:00
10:52 AM,43.0,39.9,89,29.80,-9999.0,Calm,Calm,-,0.02,,Unknown,0,2013-03-20 16:52:00
11:52 AM,46.9,39.9,77,29.74,-9999.0,Variable,3.5,-,N/A,,Unknown,0,2013-03-20 17:52:00
12:52 PM,50.0,42.1,74,29.70,-9999.0,Variable,3.5,-,N/A,,Unknown,0,2013-03-20 18:52:00
1:52 PM,52.0,44.1,74,29.67,-9999.0,Calm,Calm,-,N/A,,Unknown,0,2013-03-20 19:52:00
2:52 PM,57.9,45.0,62,29.61,-9999.0,Calm,Calm,-,N/A,,Unknown,0,2013-03-20 20:52:00
3:52 PM,57.0,43.0,59,29.55,-9999.0,Calm,Calm,-,N/A,,Unknown,0,2013-03-20 21:52:00
4:52 PM,48.9,43.0,80,29.67,-9999.0,North,9.2,16.1,0.02,,Unknown,360,2013-03-20 22:52:00
5:52 PM,42.1,39.9,92,29.82,-9999.0,Calm,Calm,-,0.43,,Unknown,0,2013-03-20 23:52:00
6:52 PM,39.9,39.0,97,29.83,-9999.0,Calm,Calm,-,0.15,,Unknown,0,2013-03-21 00:52:00
7:52 PM,39.0,37.0,93,29.85,-9999.0,Calm,Calm,-,0.05,,Unknown,0,2013-03-21 01:52:00
8:52 PM,37.0,36.0,96,29.88,-9999.0,Calm,Calm,-,0.09,,Unknown,0,2013-03-21 02:52:00
9:52 PM,36.0,35.1,97,29.90,-9999.0,Calm,Calm,-,N/A,,Unknown,0,2013-03-21 03:52:00
10:52 PM,36.0,35.1,97,29.90,-9999.0,Calm,Calm,-,N/A,,Unknown,0,2013-03-21 04:52:00
11:52 PM,36.0,35.1,97,29.92,-9999.0,Calm,Calm,-,N/A,,Unknown,0,2013-03-21 05:52:00